Home > Weather > Rankin Inlet > Past weeks

Flag for Canada Past Weather in Rankin Inlet, Nunavut, Canada — Yesterday and Last 2 Weeks

Now
27 °F

Overcast.


Feels Like: 13 °F
Forecast: 20 / 28 °F
Wind: 18 mph from Northwest

Location: Rankin Inlet

Current Time: May 24, 2016 at 5:08:35 AM

Latest Report: May 24, 2016 at 4:00 AM


Visibility: 15 mi

Pressure: 29.93 "Hg

Humidity: 86%

Dew Point: 23 °F

Location of Rankin InletLocation

Past Weather in Rankin Inlet — Graph

°F

Rankin Inlet Temperature Yesterday

Maximum temperature yesterday: 34 °F (at 2:00 PM)
Minimum temperature yesterday: 21 °F (at 3:00 AM)
Average temperature yesterday: 28 °F

High & Low Weather Summary for the Past Weeks

 TemperatureHumidityPressure
High41 °F (May 21, 2:00 PM)100% (May 10, 4:00 AM)30.38 "Hg (May 10, 4:00 AM)
Low7 °F (May 14, 6:00 AM)61% (May 21, 2:00 PM)29.60 "Hg (May 22, 10:00 AM)
Average27 °F81%30.01 "Hg
* Reported May 9 4:00 AM — May 24 4:00 AM, Rankin Inlet, Weather by CustomWeather, © 2016

Note: Actual official high and low records may vary slightly from our data, if they occured in-between our weather recording intervals... More about our weather records

Advertising

Rankin Inlet Weather History for the Previous 24 Hours

Scroll right to see more
 ConditionsComfort  
Time TempWeatherWind HumidityBarometerVisibility
4:00 AM
Tue, May 24
27 °FOvercast.18 mph86%29.93 "Hg15 mi
3:00 AM27 °FPassing clouds.24 mph80%29.92 "Hg15 mi
2:00 AM27 °FPassing clouds.26 mph86%29.90 "Hg15 mi
1:00 AM28 °FPassing clouds.21 mph80%29.89 "Hg15 mi
12:00 AM28 °FPassing clouds.23 mph80%29.88 "Hg15 mi
11:00 PM
Mon, May 23
30 °FOvercast.23 mph80%29.86 "Hg15 mi
10:00 PM30 °FPartly sunny.22 mph80%29.85 "Hg15 mi
9:00 PM30 °FPartly sunny.24 mph80%29.84 "Hg15 mi
8:00 PM32 °FPartly sunny.25 mph75%29.82 "Hg15 mi
7:00 PM32 °FBroken clouds.25 mph75%29.80 "Hg15 mi
6:00 PM32 °FPartly sunny.24 mph75%29.78 "Hg15 mi
5:00 PM34 °FBroken clouds.25 mph70%29.77 "Hg15 mi
4:00 PM34 °FBroken clouds.25 mph70%29.76 "Hg15 mi
3:00 PM32 °FBroken clouds.21 mph75%29.75 "Hg15 mi
2:00 PM34 °FPartly sunny.21 mph70%29.74 "Hg15 mi
1:00 PM32 °FOvercast.28 mph69%29.73 "Hg15 mi
12:00 PM30 °FOvercast.26 mph75%29.73 "Hg15 mi
11:00 AM30 °FOvercast.22 mph75%29.75 "Hg15 mi
10:00 AM28 °FPartly sunny.20 mph74%29.75 "Hg15 mi
9:00 AM27 °FPartly sunny.15 mph74%29.76 "Hg15 mi
8:00 AM23 °FPartly sunny.20 mph80%29.75 "Hg15 mi
7:00 AM23 °FPartly sunny.20 mph80%29.74 "Hg15 mi
6:00 AM23 °FOvercast.20 mph74%29.73 "Hg15 mi
5:00 AM21 °FOvercast.20 mph74%29.73 "Hg15 mi
Weather by CustomWeather, © 2016

See weather overviewHow to use our weather pages